THORNE RIVER AK US current weather conditions

sailwx.info

Wind from 034 at 3 knots gusting 9

Air temperature 15.6° C
Dewpoint 6.5° C

Last reported at 2020-Jun-06 21:54 UTC.
Time now 2020-Jun-06 23:11 UTC

Location: N 55°42' W 132°32'.
View on Google Maps.

See reports from other nearby stations

  
Tides and Currents Weather Stations Pressure Air Temp Water Temp Dewpoint Dewpoint Depression Visibility Wind Speed Wind Dir Waves Ship Positions
date/time (UTC)wind fromknots sea level pressurealtimeterstation pressurevisibilityair tempwater tempwave heightnotes
2020-Jun-06 21:54 034 3 gusting 9 15.6
2020-Jun-06 20:54 051 3 gusting 12 15.6
2020-Jun-06 19:54 157 3 gusting 10 17.2
2020-Jun-06 18:54 009 2 gusting 13 14.4
2020-Jun-06 17:54 306 3 gusting 11 15.0
2020-Jun-06 16:54 274 6 gusting 13 12.2
2020-Jun-06 15:54 288 7 gusting 14 11.1
2020-Jun-06 14:54 294 8 gusting 15 10.6
2020-Jun-06 13:54 291 9 gusting 14 9.4
2020-Jun-06 12:54 292 8 gusting 14 9.4
2020-Jun-06 11:54 284 8 gusting 14 9.4
2020-Jun-06 10:54 289 10 gusting 15 9.4
2020-Jun-06 09:54 282 9 gusting 13 9.4
2020-Jun-06 08:54 283 9 gusting 15 9.4
2020-Jun-06 07:54 289 11 gusting 16 10.0
2020-Jun-06 06:54 288 10 gusting 16 10.6
2020-Jun-06 05:54 285 8 gusting 12 11.1
2020-Jun-06 04:54 281 7 gusting 12 12.2
2020-Jun-06 03:54 269 3 gusting 6 15.6
2020-Jun-06 02:54 341 2 gusting 6 15.0
2020-Jun-06 01:54 148 2 gusting 7 17.2
2020-Jun-06 00:54 180 4 gusting 6 18.3
2020-Jun-05 23:54 173 4 gusting 10 17.2
2020-Jun-05 22:54 166 5 gusting 8 16.1
2020-Jun-05 21:54 168 6 gusting 10 17.8
2020-Jun-05 20:54 170 6 gusting 10 17.2
2020-Jun-05 19:54 165 5 gusting 9 16.1
2020-Jun-05 18:54 171 5 gusting 9 13.9
2020-Jun-05 17:54 073 2 gusting 8 12.2
2020-Jun-05 16:54 101 1 gusting 6 10.6
2020-Jun-05 15:54 038 2 gusting 6 10.0
2020-Jun-05 14:54 032 2 gusting 8 8.3
2020-Jun-05 13:54 027 5 gusting 9 7.8
2020-Jun-05 12:54 041 3 gusting 10 7.2
2020-Jun-05 11:54 092 7 gusting 10 7.2
2020-Jun-05 10:54 073 4 gusting 9 7.8
2020-Jun-05 09:54 061 5 gusting 10 7.2
2020-Jun-05 08:54 043 4 gusting 7 7.2
2020-Jun-05 07:54 002 3 gusting 5 6.7
2020-Jun-05 06:54 7.2
2020-Jun-05 05:54 353 2 gusting 3 7.8
2020-Jun-05 04:54 317 0 gusting 5 7.8
2020-Jun-05 03:54 299 4 gusting 7 8.3
2020-Jun-05 02:54 284 3 gusting 6 8.9
2020-Jun-05 01:54 019 0 gusting 6 9.4
2020-Jun-05 00:54 338 3 gusting 7 12.2
2020-Jun-04 23:54 003 2 gusting 5 11.7